Temp
30 29 29 27 26 26 25 24 23 23 22 21 21 22 22 22 23 23 23 23 23 23 24 24 24 24 24 25 24 24 24 24 24
29 29 29 28 26 26 25 24 24 23 22 22 21 22 22 22 22 23 23 23 23 23 24 24 24 25 25 25 25 24 24 24 24
28 28 29 28 27 26 25 24 24 23 23 22 22 22 22 22 22 22 23 23 23 23 24 24 24 25 25 25 25 25 24 24 24
27 28 28 28 27 28 25 25 24 23 23 22 22 22 22 22 22 22 22 23 23 23 24 24 24 24 24 24 24 25 24 24 24
27 27 28 28 27 27 25 24 24 23 22 22 22 23 22 23 22 22 22 22 23 23 23 23 24 24 25 25 25 25 25 25 25
27 25 25 25 24 24 24 24 24 23 23 22 22 23 22 22 22 22 22 23 23 23 23 24 24 24 24 24 25 25 25 25 25
28 25 23 23 23 23 23 24 24 23 23 23 23 23 22 22 22 22 23 23 23 23 23 23 24 24 24 24 24 25 25 25 24
28 27 24 23 22 22 22 23 23 23 23 23 23 22 22 22 23 23 23 23 23 23 24 24 24 24 24 24 24 24 24 24 24
29 28 27 25 24 23 23 24 23 23 23 23 23 23 23 23 23 23 22 23 23 23 24 24 24 24 24 24 24 24 24 24 23
25 25 26 26 24 24 24 24 24 23 23 23 23 23 23 23 23 23 23 23 23 23 23 23 23 23 23 23 22 22 21 21 20
23 24 24 24 23 24 25 25 25 24 23 23 22 22 22 23 23 23 23 23 23 23 23 24 24 24 23 22 21 20 22 24 23
22 22 21 22 25 25 26 26 26 25 24 23 22 22 22 23 23 23 23 23 23 23 23 24 24 24 23 22 21 21 25 23 21
22 22 22 21 23 24 25 25 26 25 24 23 23 23 24 24 24 23 23 24 24 24 24 24 23 23 23 23 22 22 22 23 21
21 22 22 23 23 22 22 24 25 25 24 23 24 24 24 24 24 24 24 24 23 24 23 22 22 22 22 21 21 21 22 20 17
19 20 21 22 23 23 24 24 23 23 24 24 24 24 24 24 24 24 24 24 23 23 22 22 21 20 19 19 19 18 17 17 16
19 21 21 22 22 23 24 24 23 22 22 23 23 23 24 23 23 24 23 23 22 22 21 21 20 18 17 17 17 17 16 17 16
18 20 21 22 21 21 22 24 23 23 23 23 23 20 20 20 21 21 21 21 21 21 20 20 18 17 15 15 16 16 16 16 15
19 20 21 22 21 21 21 21 23 23 21 21 22 21 19 18 18 18 19 19 19 20 20 21 20 18 17 16 15 17 18 17 15
19 19 21 21 21 21 22 21 21 22 20 19 20 21 23 19 17 16 17 17 17 18 19 19 20 20 19 18 19 19 18 17 16
18 18 19 20 21 22 22 21 21 21 21 20 20 19 18 17 16 16 16 16 16 16 17 18 18 18 19 19 19 17 16 16 15
Height
715 722 727 732 735 741 748 757 764 769 773 778 783 789 793 798 802 805 809 813 816 818 820 823 826 828 830 831 832 833 834 835 835
717 717 722 725 731 736 743 749 753 759 768 774 779 783 789 794 798 801 804 808 812 815 817 820 823 824 826 828 829 830 831 832 832
717 714 717 721 726 731 736 742 750 758 763 767 772 779 784 788 793 797 800 804 807 810 813 816 818 820 823 825 826 826 827 828 829
713 711 711 715 718 724 733 741 747 753 759 765 770 775 779 784 788 792 796 799 803 806 809 811 814 817 819 820 821 822 823 824 826
707 706 705 708 714 723 729 735 743 749 756 761 765 770 775 779 784 788 791 794 798 802 805 809 811 813 815 815 816 818 820 822 823
706 707 708 712 717 721 727 733 739 744 750 754 760 766 770 775 779 783 786 789 793 798 802 805 808 810 811 813 815 816 817 818 819
707 709 711 714 719 720 724 729 734 740 745 750 755 760 765 770 773 777 781 785 789 793 797 800 803 805 808 810 811 813 814 815 816
707 710 713 713 715 717 721 726 731 737 742 746 751 756 761 763 768 773 777 781 783 787 791 795 798 801 803 805 807 809 811 812 812
714 711 710 712 711 714 716 719 723 730 736 741 746 749 753 759 764 768 771 775 778 782 785 789 793 795 798 800 803 805 808 809 808
719 716 713 710 709 707 710 713 717 723 727 735 740 745 748 754 758 762 766 770 773 776 779 783 786 789 792 796 798 798 799 801 802
726 721 716 713 710 711 709 713 717 722 728 733 738 741 744 748 752 756 761 765 768 771 774 777 780 783 787 790 791 790 793 792 793
728 725 720 714 710 709 709 712 716 721 724 728 733 737 741 743 746 750 755 759 762 766 770 772 774 778 782 783 784 785 783 785 785
729 728 725 719 714 711 710 713 714 719 722 726 727 730 733 738 742 746 749 752 756 760 764 766 771 773 775 776 777 779 780 780 780
729 728 724 720 716 716 714 713 713 716 719 720 722 727 730 734 737 741 744 748 751 755 758 762 765 767 768 770 772 774 775 776 779
731 728 728 727 723 720 718 715 716 717 717 719 721 723 730 728 732 736 740 744 747 751 754 757 760 762 764 766 767 770 773 777 780
735 729 729 730 728 725 722 718 718 719 720 720 720 721 724 725 726 729 733 737 740 744 748 752 756 758 761 763 765 768 772 774 776
735 730 727 728 733 729 726 722 721 720 720 720 721 722 724 726 725 726 728 732 736 739 744 748 754 757 760 763 766 767 770 773 776
729 734 729 723 726 726 724 723 721 720 721 721 721 724 726 730 730 728 726 731 736 739 742 745 747 754 756 760 765 767 767 770 775
727 726 726 724 724 724 722 722 721 721 720 722 720 716 705 721 737 730 723 732 736 743 743 746 748 752 755 760 762 764 765 768 770
723 724 723 722 720 720 720 720 719 718 719 720 718 716 716 728 731 729 733 730 734 745 748 749 751 754 757 759 760 764 766 767 769
Wind_Speed
16 16 14 15 17 26 29 31 31 31 33 32 37 38 39 36 34 31 30 29 26 24 24 23 21 24 22 20 19 17 17 15 14
13 15 15 17 14 25 27 32 36 36 33 32 35 38 38 38 37 35 33 30 27 26 25 25 22 20 22 21 20 20 19 18 15
11 12 14 14 14 22 29 31 32 31 35 37 39 37 37 37 37 35 33 32 31 30 27 25 26 22 22 24 23 23 23 22 18
10 13 15 14 16 23 24 26 29 31 33 31 31 34 35 35 35 35 34 32 33 31 27 24 27 25 24 26 24 22 23 23 20
7 10 15 14 13 18 22 27 28 31 31 31 34 37 36 36 34 32 34 33 33 32 31 25 21 21 22 20 18 20 22 22 21
3 8 8 8 9 10 17 24 28 30 31 32 32 34 35 35 36 35 35 34 34 31 31 31 27 22 21 20 18 18 20 21 23
4 3 7 7 6 8 16 23 27 30 29 32 33 34 33 33 36 37 36 36 34 33 29 29 28 27 26 24 22 23 23 23 23
8 8 8 9 9 9 14 20 24 26 27 30 33 32 32 36 35 34 34 34 35 33 32 33 31 29 28 27 28 29 27 26 28
1 4 6 7 8 9 12 22 26 27 28 31 34 34 37 33 32 33 33 34 33 31 33 32 33 34 34 35 33 32 26 26 27
6 6 4 5 9 12 18 24 27 29 32 31 33 34 32 33 34 33 33 32 31 32 31 29 29 29 29 25 23 23 21 20 17
8 6 5 6 2 8 16 20 23 23 24 28 29 29 30 33 34 35 33 31 31 31 29 29 28 27 24 22 16 15 4 13 21
6 6 7 7 9 6 14 18 22 25 27 28 27 28 30 33 36 35 33 33 32 30 28 28 29 27 23 24 22 17 18 18 24
8 9 12 15 18 17 8 10 18 24 26 25 27 30 36 35 36 34 33 35 33 31 29 29 26 24 24 25 24 23 20 16 11
6 10 17 20 26 21 20 11 11 22 24 28 32 29 30 33 35 35 36 33 30 28 27 23 19 19 17 17 17 17 17 18 13
6 6 13 21 23 23 25 17 4 11 18 20 23 27 29 31 33 33 32 30 27 24 21 18 13 12 11 12 13 13 11 10 10
7 6 9 13 18 21 22 21 12 6 4 6 9 14 24 28 28 29 28 27 24 21 20 17 17 17 15 13 13 11 9 6 8
5 8 6 8 8 9 14 14 12 6 5 4 5 5 9 14 20 22 23 24 24 23 20 18 18 18 18 18 17 13 8 3 3
4 6 8 6 5 7 8 8 9 9 6 4 3 2 5 7 11 16 20 18 17 18 18 19 21 20 22 24 17 14 11 7 2
10 9 13 11 8 9 10 9 10 8 7 10 13 10 3 29 17 16 15 18 16 13 14 14 13 15 20 17 15 14 12 7 2
9 10 13 15 16 12 12 15 16 14 13 12 12 9 18 27 23 23 22 21 18 16 15 19 21 22 20 18 18 14 10 6 3
Wind_Direction
200 195 196 194 190 191 189 188 188 192 197 200 206 211 214 215 215 215 217 221 222 221 220 223 235 229 232 240 239 243 244 241 243
197 203 195 198 187 192 187 188 191 191 196 200 206 211 213 216 218 217 218 222 224 226 229 234 237 235 236 237 244 246 245 244 244
205 204 199 195 195 190 192 193 191 191 199 200 206 208 214 218 220 220 223 223 224 227 231 239 237 241 241 249 251 253 244 244 248
202 200 197 191 196 196 188 187 186 189 196 199 202 208 213 217 222 223 222 222 224 226 230 240 236 243 248 252 255 250 242 239 246
215 197 197 194 188 177 172 179 183 186 193 197 204 209 213 218 222 222 219 219 222 227 228 236 236 248 250 254 246 248 235 241 251
204 185 171 164 158 175 169 176 182 187 192 199 203 208 212 215 219 222 221 221 222 226 234 237 242 245 249 249 245 247 248 251 254
148 141 154 138 147 171 172 179 182 189 193 197 200 203 207 210 216 220 222 222 224 227 232 236 242 246 251 254 257 255 256 258 259
142 151 174 186 176 183 171 176 184 191 194 195 199 201 206 214 220 223 224 225 228 230 234 238 242 246 251 256 257 258 259 259 262
160 192 205 216 199 183 183 183 186 188 191 196 199 202 211 216 221 225 227 229 230 233 236 240 244 249 254 257 262 268 275 279 280
56 42 359 246 210 195 193 193 188 189 194 192 197 206 209 214 221 225 229 231 231 234 236 240 243 249 253 260 267 265 261 265 286
7 6 12 5 289 224 207 201 195 195 190 193 198 206 209 213 218 225 229 230 232 235 237 240 245 249 252 248 244 245 235 316 313
9 349 346 346 6 337 228 209 198 196 190 192 196 206 212 215 218 221 224 228 233 236 238 243 247 251 250 245 228 211 250 280 282
17 11 9 19 26 36 37 231 205 197 196 193 201 207 216 220 223 222 222 230 231 235 238 244 248 251 253 255 248 248 251 268 256
25 15 9 22 36 30 23 13 202 206 204 205 219 220 219 223 227 227 232 233 232 235 235 236 237 243 248 246 239 238 240 243 238
24 38 29 21 18 19 21 21 2 220 223 231 230 232 232 230 231 231 231 231 230 227 224 221 204 189 182 200 216 205 201 216 219
324 52 50 31 23 9 12 17 16 330 305 253 238 228 227 230 227 224 222 217 208 193 195 183 172 165 165 164 177 181 187 221 282
295 357 17 42 5 20 357 5 357 331 301 284 276 222 220 211 200 193 190 191 185 181 174 174 170 163 161 156 157 159 172 194 272
265 288 332 7 335 327 326 323 335 314 274 215 168 62 354 265 209 173 156 156 166 177 182 185 176 182 171 163 166 167 150 138 184
246 255 291 282 275 277 292 276 276 269 245 228 217 202 334 302 230 169 165 151 141 168 173 180 187 190 173 167 161 159 154 141 121
291 281 275 268 257 255 267 263 254 260 245 227 241 223 183 200 196 173 166 148 140 144 157 159 155 159 167 169 167 165 160 170 187